Home > Time Zones > World Clock > Weather > China > Sian > Past weeks

Flag for China Weather past 2 weeks in Sian, Shaanxi, China

Now
32 °F

Light snow. Ice fog.


Feels Like: 25 °F
Forecast: 31 / 48 °F
Wind: 8 mph from Northeast

Location: Xian/Xianyang

Current Time: Mar 5, 2015 at 1:20:56 AM

Latest Report: Mar 5, 2015 at 1:00 AM


Visibility: 1 mi

Pressure: 30.21 "Hg

Humidity: 93%

Dew point: 30 °F

Location of SianLocation

Historic Weather in Sian — Graph

°F

Sian temperature yesterday

Maximum temperature yesterday: 45 °F (at 12:00 PM)
Minimum temperature yesterday: 34 °F (at 10:00 PM)
Average temperature yesterday: 40 °F

Past Weeks' High & Low Weather Summary

 TemperatureHumidityPressure
High61 °F (Mar 2, 3:00 PM)100% (Feb 21, 2:00 AM)30.48 "Hg (Feb 21, 2:00 AM)
Low19 °F (Mar 1, 6:00 AM)13% (Feb 25, 4:00 PM)29.86 "Hg (Mar 2, 3:00 PM)
Average41 °F53%30.12 "Hg
* Reported Midnight between Feb 17 and Feb 18 — Midnight between Mar 4 and Mar 5, Sian, Weather by CustomWeather, © 2015

Note: Actual official high and low records may vary slightly from our data, if they occured in-between our weather recording intervals... More about our weather records

Advertising

Sian weather history for previous 24 hours

 ConditionsComfort  
Time TempWeatherWind HumidityBarometerVisibility
12:00 AM
Thu, Mar 5
32 °FLight snow. Ice fog.6 mph93%30.27 "Hg1 mi
11:00 PM
Wed, Mar 4
34 °FLight rain. Fog.8 mph87%30.24 "Hg2 mi
10:00 PM34 °FLight rain. Fog.8 mph87%30.24 "Hg2 mi
9:00 PM36 °FLight rain. Mostly cloudy.8 mph81%30.21 "Hg4 mi
8:00 PM37 °FLight rain. Mostly cloudy.10 mph75%30.21 "HgN/A
7:00 PM39 °FScattered clouds.8 mph61%30.15 "HgN/A
6:00 PM39 °FScattered clouds.10 mph56%30.15 "HgN/A
5:00 PM41 °FScattered clouds.8 mph49%30.12 "HgN/A
4:00 PM41 °FScattered clouds.13 mph42%30.12 "HgN/A
3:00 PM43 °FScattered clouds.13 mph39%30.12 "HgN/A
2:00 PM43 °FMore clouds than sun.13 mph39%30.12 "HgN/A
1:00 PM43 °FMore clouds than sun.13 mph36%30.15 "HgN/A
12:00 PM45 °FMore clouds than sun.15 mph27%30.18 "HgN/A
11:00 AM41 °FMore clouds than sun.15 mph28%30.21 "HgN/A
10:00 AM41 °FMore clouds than sun.17 mph28%30.21 "HgN/A
9:00 AM39 °FMore clouds than sun.20 mph28%30.18 "HgN/A
8:00 AM39 °FMostly cloudy.20 mph26%30.15 "HgN/A
7:00 AM39 °FPassing clouds.15 mph20%30.12 "HgN/A
6:00 AM39 °FPassing clouds.13 mph20%30.12 "HgN/A
5:00 AM39 °FPassing clouds.10 mph22%30.09 "HgN/A
4:00 AM39 °FClear.8 mph22%30.12 "Hg10 mi
3:00 AM41 °FClear.10 mph20%30.12 "Hg10 mi
2:00 AM41 °FClear.13 mph19%30.12 "Hg10 mi
1:00 AM41 °FClear.13 mph22%30.12 "Hg10 mi
Weather by CustomWeather, © 2015

See weather overviewHow to use our weather pages